Home   Weather   Germany   Meerbusch   Past weeks
Flag for Germany

Past Weather in Meerbusch, North Rhine-Westphalia, Germany — Yesterday and Last 2 Weeks

Currently: 45 °F. Clear. (Weather station: Duesseldorf, Germany). See more current weather

Past Weather in Meerbusch — Graph

°F

Meerbusch Temperature Yesterday

Maximum temperature yesterday: 66 °F (at 3:50 pm)
Minimum temperature yesterday: 50 °F (at 6:20 am)
Average temperature yesterday: 57 °F

High & Low Weather Summary for the Past Weeks

 TemperatureHumidityPressure
High68 °F (Feb 24, 2:20 pm)100% (Feb 16, 4:20 am)30.72 "Hg (Feb 16, 4:20 am)
Low9 °F (Feb 13, 6:50 am)33% (Feb 14, 1:50 pm)29.71 "Hg (Feb 18, 5:20 pm)
Average45 °F68%30.23 "Hg
* Reported Feb 11 7:20 pm — Feb 26 7:20 pm, Meerbusch. Weather by CustomWeather, © 2021

Note: Actual official high and low records may vary slightly from our data, if they occured in-between our weather recording intervals... More about our weather records

Meerbusch Weather History for the Previous 24 Hours

Scroll right to see more
 ConditionsComfort  
Time TempWeatherWind HumidityBarometerVisibility
7:20 pm
Fri, Feb 26
45 °FClear.8 mph71%30.57 "Hg10 mi
6:50 pm46 °FClear.9 mph66%30.57 "Hg10 mi
6:20 pm48 °FClear.12 mph58%30.54 "Hg10 mi
5:50 pm48 °FPassing clouds.10 mph58%30.54 "HgN/A
5:20 pm50 °FPassing clouds.12 mph54%30.54 "HgN/A
4:50 pm50 °FPassing clouds.10 mph58%30.54 "HgN/A
4:20 pm50 °FPassing clouds.10 mph54%30.54 "HgN/A
3:50 pm52 °FPassing clouds.8 mph54%30.51 "HgN/A
3:20 pm50 °FPassing clouds.10 mph58%30.51 "HgN/A
2:50 pm54 °FPassing clouds.12 mph51%30.51 "HgN/A
2:20 pm52 °FPassing clouds.13 mph50%30.51 "HgN/A
1:50 pm52 °FPassing clouds.13 mph50%30.51 "HgN/A
1:20 pm52 °FScattered clouds.12 mph54%30.54 "HgN/A
12:50 pm52 °FScattered clouds.12 mph54%30.54 "HgN/A
12:20 pm52 °FScattered clouds.10 mph58%30.54 "HgN/A
11:50 am52 °FPassing clouds.7 mph67%30.54 "HgN/A
11:20 am50 °FPassing clouds.3 mph71%30.54 "HgN/A
10:50 am48 °FPassing clouds.6 mph76%30.51 "HgN/A
10:20 am48 °FPassing clouds.7 mph76%30.51 "HgN/A
9:50 am46 °FPassing clouds.3 mph76%30.51 "HgN/A
9:20 am45 °FPassing clouds.2 mph81%30.51 "HgN/A
8:50 am45 °FPassing clouds.3 mph81%30.51 "HgN/A
8:20 am43 °FPassing clouds.5 mph87%30.51 "HgN/A
7:50 am43 °FLight rain. Passing clouds.2 mph87%30.48 "HgN/A
7:20 am43 °FLight rain. Passing clouds.3 mph81%30.48 "HgN/A
6:50 am43 °FPassing clouds.7 mph87%30.48 "HgN/A
6:20 am45 °FLight rain. Passing clouds.13 mph81%30.48 "HgN/A
5:50 am45 °FLight rain. Passing clouds.13 mph81%30.45 "HgN/A
5:20 am45 °FLight rain. Passing clouds.10 mph87%30.45 "HgN/A
4:50 am45 °FLight rain. Passing clouds.10 mph93%30.45 "HgN/A
4:20 am46 °FPassing clouds.6 mph87%30.42 "HgN/A
3:50 am46 °FPassing clouds.5 mph87%30.42 "HgN/A
3:20 am46 °FLight rain. Passing clouds.7 mph87%30.39 "HgN/A
2:50 am46 °FLight rain. Passing clouds.10 mph93%30.42 "Hg5 mi
2:20 am48 °FPartly cloudy.13 mph94%30.42 "Hg4 mi
1:50 am48 °FPassing clouds.13 mph94%30.42 "Hg2 mi
1:20 am50 °FPassing clouds.10 mph94%30.42 "Hg2 mi
12:50 am50 °FPartly cloudy.6 mph94%30.39 "Hg4 mi
12:20 am52 °FPassing clouds.6 mph88%30.39 "HgN/A
11:50 pm
Thu, Feb 25
52 °FPassing clouds.6 mph88%30.39 "HgN/A
11:20 pm52 °FPassing clouds.7 mph88%30.36 "HgN/A
10:50 pm52 °FPassing clouds.7 mph88%30.36 "HgN/A
10:20 pm52 °FClear.12 mph88%30.36 "Hg10 mi
9:50 pm54 °FClear.12 mph82%30.36 "Hg10 mi
9:20 pm55 °FClear.14 mph77%30.33 "Hg10 mi
8:50 pm57 °FClear.2 mph67%30.33 "Hg10 mi
8:20 pm59 °FClear.2 mph63%30.30 "Hg10 mi
Weather by CustomWeather, © 2021

See weather overview